Location: Loup Canal
(41.4930°N, 97.5670°W)
Time: 19:11:40
(UTC-05:00)

Daily predictions for brighter satellites

Satellite Brightness Start Highest point End
(mag) Time Altitude Azimuth Time Altitude Azimuth Time Altitude Azimuth
USA 215 3.6 19:35:53 10° ENE 19:42:05 44° SE 19:48:15 10° SSW
SL-16 R/B 2.5 19:38:00 10° S 19:43:25 48° ESE 19:48:53 10° NE
Cosmos 292 Rocket 4.0 19:44:28 10° SSW 19:49:15 79° WNW 19:54:07 10° NNE
MSX 4.3 19:44:38 10° S 19:50:19 68° WSW 19:56:05 10° NNW
Cosmos 1953 3.6 19:47:54 10° SE 19:50:49 20° E 19:53:43 10° NE
Cosmos 2346 Rocket 4.5 19:51:04 10° N 19:57:11 89° E 20:03:13 10° S
ATLAS 3B R/B 4.2 19:50:21 10° WSW 19:57:26 40° NW 20:04:19 10° NNE
Helios 1A 3.7 19:54:01 10° SE 19:57:46 33° ENE 20:01:32 10° N
SeaSat 1 4.0 19:58:06 10° ENE 20:00:31 14° ESE 20:02:56 10° SE
Cosmos 1452 Rocket 4.1 19:56:27 10° N 20:01:21 37° ENE 20:06:11 10° SE
Cosmos 1805 4.3 19:58:24 10° SE 20:01:39 25° E 20:04:55 10° NE
Cosmos 1441 Rocket 4.4 19:58:07 10° NNW 20:01:43 46° W 20:05:18 10° S
Cosmos 2219 Rocket 4.0 19:58:00 10° WSW 20:03:05 34° WNW 20:08:14 10° N
COSMO-SKYMED 1 3.4 19:59:00 10° N 20:03:16 56° WNW 20:07:30 10° SSW
H-2A R/B 4.4 20:01:11 11° ESE 20:03:30 17° ENE 20:06:03 10° NNE
Cosmos 1378 3.1 20:00:02 10° N 20:03:45 62° E 20:07:26 10° SSE
METEOR-M 4.2 19:59:03 10° SSE 20:04:16 56° ENE 20:09:30 10° N
Meteor 1-28 Rocket 3.1 20:02:58 10° NNE 20:06:42 74° E 20:10:24 10° S
CZ-4B DEB 4.3 20:06:22 13° ESE 20:08:09 19° ENE 20:10:34 10° NNE
Cosmos 2278 Rocket 3.4 20:02:49 10° NW 20:08:13 46° WSW 20:13:32 10° S
Meteor 1-22 Rocket 4.0 20:03:47 10° S 20:09:09 84° E 20:14:28 10° N
ALOS 3.1 20:05:30 10° SE 20:09:31 29° ENE 20:13:33 10° N
OAO 3 Rocket 4.1 20:05:25 10° WSW 20:09:44 35° S 20:13:21 14° ESE
FENGYUN 3A 4.3 20:08:25 10° SE 20:13:13 35° ENE 20:18:04 10° N
Cosmos 2297 3.8 20:07:34 10° NNW 20:13:16 85° WSW 20:18:53 10° SSE
Cosmos 1707 4.4 20:10:40 10° NNW 20:14:15 38° W 20:17:50 10° SSW
NOSS 3-2 (A) 3.4 20:08:21 10° SSW 20:14:23 77° ESE 20:20:59 10° NE
Meteor 1-24 Rocket 4.0 20:13:21 10° NNW 20:19:00 72° W 20:24:25 10° S
CZ-4C R/B 3.6 20:15:56 10° WSW 20:20:59 40° NW 20:26:42 10° NNE
FREGAT/IRIS 3.0 20:18:21 10° S 20:21:26 70° W 20:24:32 10° NNW
SJ-6B 3.5 20:18:37 10° S 20:22:30 59° W 20:26:32 10° NNW
Cosmos 1766 Rocket 3.5 20:19:40 10° N 20:24:02 63° E 20:28:20 10° SSE
Cosmos 2369 Rocket 3.6 20:22:40 10° N 20:26:53 21° NE 20:28:55 17° E
Cosmos 2034 Rocket 4.0 20:23:08 10° S 20:29:18 66° E 20:35:34 10° NNE
Cosmos 1603 4.0 20:25:15 10° S 20:30:38 44° ESE 20:36:05 10° NE
Timation 1 Rocket 4.4 20:25:32 10° NNW 20:31:32 85° WSW 20:37:29 10° SSE
Cosmos 1464 Rocket 4.0 20:25:32 10° S 20:31:48 88° W 20:38:02 10° N
Cosmos 1758 3.3 20:28:10 10° S 20:32:11 62° E 20:36:15 10° NNE
Cosmos 1943 Rocket 4.1 20:32:10 10° NNE 20:34:03 12° NE 20:35:15 11° NE
Cosmos 1269 Rocket 4.3 20:34:41 10° S 20:39:37 41° ESE 20:44:33 10° NNE
Cosmos 1076 Rocket 3.8 20:36:15 10° NNW 20:40:34 69° W 20:44:53 10° S
GPS 2-04 Rocket1 4.5 20:39:19 10° SSW 20:41:01 14° SSE 20:41:01 14° SSE
Spot 2 Rocket 3.7 20:37:00 10° S 20:42:01 73° WSW 20:47:05 10° NNW
Helios 1B rocket 2.5 20:38:08 10° N 20:42:15 79° WNW 20:46:21 10° SSW
Cosmos 1048 Rocket 4.4 20:39:03 10° S 20:43:56 39° ESE 20:48:47 10° NE
ASTEX 1 3.5 20:40:08 10° NNE 20:44:55 50° E 20:49:39 10° SSE
Cosmos-2242 2.9 20:41:15 10° S 20:45:36 79° E 20:49:59 10° N
FengYun 1-2 T 4.2 20:40:40 10° SSE 20:46:12 90° W 20:51:44 10° NNW
SL-8 R/B 4.3 20:44:26 10° SSW 20:48:49 37° SE 20:49:42 34° ESE
CENTAUR R/B 3.1 20:46:39 10° S 20:51:48 31° ESE 20:53:12 28° E
Cosmos 1674 3.1 20:48:08 10° N 20:51:51 42° ENE 20:51:56 42° E
NOSS 3-2 (C) 3.7 20:46:01 10° SW 20:52:06 76° NW 20:58:46 10° NNE
Envisat 4.2 20:53:17 23° ENE 20:53:17 23° ENE 20:57:00 10° NNE
Cosmos 1842 Rocket 3.7 20:55:05 33° SE 20:56:32 47° E 21:00:44 10° NNE
Cosmos 1500 Rocket 3.7 20:53:55 10° N 20:58:14 51° E 20:59:06 44° ESE
Cosmos 1408 Rocket 4.5 20:54:28 10° NNW 20:58:40 49° W 21:02:49 10° SSW
Cosmos 1346 3.1 20:57:30 10° N 21:00:12 70° NNW 21:00:12 70° NNW
Cosmos 2151 4.4 20:58:22 10° NNE 21:00:39 23° NE 21:00:39 23° NE
Meteor 1-21 Rocket 4.2 20:56:46 10° NNW 21:02:21 81° W 21:07:51 10° S
Atlas Centaur 2 4.4 20:57:39 10° WSW 21:04:14 25° SSW 21:08:50 15° SSE
ATLAS CENTAUR R/B 4.2 21:03:36 10° W 21:05:26 13° WSW 21:07:13 10° SW
Resurs 01 Rocket 3.2 21:05:44 10° SSW 21:09:48 35° W 21:13:54 10° NNW
ATLAS 5 CENTAUR R/B 2.6 21:11:17 10° SW 21:15:58 53° NW 21:21:06 10° NNE
CZ-2D R/B 3.8 21:18:24 37° SSW 21:19:42 58° W 21:23:34 10° NNW
USA 215 3.8 21:18:48 10° NE 21:25:10 57° NW 21:31:31 10° WSW
Cosmos 1743 Rocket 4.3 21:21:59 10° NNW 21:26:20 53° W 21:28:38 25° SSW
Cosmos 1953 4.4 21:23:36 10° SW 21:27:04 28° WNW 21:30:33 10° NNW
SL-16 R/B 4.3 21:23:02 10° WSW 21:27:46 27° NW 21:32:33 10° N
ERS-1 Rocket 3.2 21:34:54 55° NE 21:34:54 55° NE 21:39:10 10° N
H-2A R/B 4.2 21:36:26 30° SW 21:37:32 36° W 21:41:09 10° NNW
SeaSat 1 2.5 21:33:34 10° NNE 21:38:31 77° WNW 21:43:27 10° SSW
GP-B 3.3 21:34:53 10° N 21:38:50 66° NNW 21:38:50 66° NNW
Cosmos 1655 Rocket 3.9 21:36:00 10° N 21:42:01 63° ENE 21:42:01 63° ENE
ALOS 4.1 21:42:53 10° SSW 21:46:54 28° W 21:50:56 10° NW
Cosmos 1092 Rocket 4.4 21:41:40 10° NNW 21:47:46 60° W 21:51:18 25° SSW
Cosmos 1634 Rocket 4.4 21:56:11 10° SSW 22:02:22 62° W 22:08:32 10° N
Cosmos 2026 Rocket 3.9 21:57:17 10° N 22:03:21 81° W 22:03:21 81° W
Cosmos 839 Rocket 4.1 21:57:22 10° NNW 22:05:03 85° WSW 22:05:20 82° S
H-2A R/B 4.4 22:08:56 18° N 22:08:56 18° N 22:10:11 10° N
Cosmos 2369 Rocket 2.6 22:05:47 10° NNW 22:10:43 59° WNW 22:10:43 59° WNW
Cosmos 1943 Rocket 3.3 22:13:21 10° NNW 22:16:46 37° N 22:16:46 37° N
CENTAUR R/B 3.4 22:36:06 10° WSW 22:46:45 20° NNE 22:48:49 10° NNE
